Tracking 30995 objects as of 5-Jul-2025
HD Live streaming from Space Station
objects crossing your sky now

MOLNIYA 1-80

Track MOLNIYA 1-80 now!
MOLNIYA 1-80 is classified as:


NORAD ID: 21118
Int'l Code: 1991-012A
Perigee: 3,178.3 km
Apogee: 36,390.9 km
Inclination: 64.9 °
Period: 701.6 minutes
Semi major axis: 26155 km
RCS: 6.3095 m2 (large)
Launch date: February 15, 1991
Source: Commonwealth of Independent States (former USSR) (CIS)
Launch site: PLESETSK MISSILE AND SPACE COMPLEX (PKMTR)
Your satellite tracking list
OBJECT B
Track 1 satellite(s)




NASA's NSSDC Master Catalog

Two Line Element Set (TLE):
1 21118U 91012A   25184.98608917  .00000257  00000-0  00000-0 0  9998
2 21118  64.9130 224.5759 6349051 261.7821  26.7247  2.05237294253818
Source of the keplerian elements: AFSPC